Location: Arpaise
(41.0333°N, 14.7333°E)
Time: 22:04:12
(UTC+00:00)

Cosmos 846 Rocket - Pass Details

Date: 19 January 2021
Orbit: 948 x 991 km, 82.9° (Epoch: 06 March)

Event Time Altitude Azimuth Distance (km) Brightness Sun altitude
Rises 19:52:28 0° 223° (SW) 3,674 8.8 -43.0°
Reaches altitude 10° 19:55:32 10° 237° (WSW) 2,724 8.2 -43.6°
Enters shadow 19:58:48 21° 267° (W) 2,021 7.6 -44.2°
